Mount Sterling, KY

7:12 PM EDT on September 26, 2016 (GMT -0400)
Mount Sterling-Montgomery County

Weather History for KIOB - August, 2013

Change the Weather History Date:

Thursday, August 1, 2013

  Actual Average Record
Temperature  
Mean Temperature 71 °F -  
Max Temperature 80 °F 84 °F 84 °F (2015)
Min Temperature 62 °F 64 °F 55 °F (2014)
Cooling Degree Days 6    
Growing Degree Days 21 (Base 50)    
Moisture  
Dew Point 66 °F    
Average Humidity 84    
Maximum Humidity 100    
Minimum Humidity 57    
Precipitation  
Precipitation 0.00 in - - ()
Sea Level Pressure  
Sea Level Pressure 30.01 in    
Wind  
Wind Speed 3 mph (NW)    
Max Wind Speed 9 mph    
Max Gust Speed 16 mph    
Visibility 8 miles    
Events      
Averages and records for this station are not official NWS values.
T = Trace of Precipitation, MM = Missing Value Source: NWS Daily Summary

Daily Weather History Graph

Daily Weather History Graph

Search for Another Location

Airport or City:

Trip Planner

Search our weather history database for the weather conditions in past years. The results will help you decide how hot, cold, wet, or windy it might be!

Date:

Astronomy

Aug. 01, 2013 Rise Set
Actual Time 6:39 AM EDT 8:44 PM EDT
Civil Twilight 6:09 AM EDT 9:14 PM EDT
Nautical Twilight 5:34 AM EDT 9:49 PM EDT
Astronomical Twilight 4:55 AM EDT 10:28 PM EDT
Moon 2:15 AM EDT (8/1) 4:52 PM EDT (8/1)
Length of Visible Light 15h 04m
Length of Day
14h 05m
Waning Crescent, 23% of the Moon is Illuminated
Aug 1
Waning Crescent
Aug 6
New
Aug 14
First Quarter
Aug 20
Full
Aug 28
Last Quarter

Hourly Weather History & Observations

Time (EDT) Temp. Heat Index Dew Point Humidity Pressure Visibility Wind Dir Wind Speed Gust Speed Precip Events Conditions
12:15 AM 68.0 °F - 68.0 °F 100% 30.01 in 10.0 mi Calm Calm - N/A   Overcast
12:35 AM 68.0 °F - 68.0 °F 100% 30.01 in 10.0 mi Calm Calm - N/A   Overcast
12:55 AM 68.0 °F - 68.0 °F 100% 30.01 in 10.0 mi Calm Calm - N/A   Overcast
1:15 AM 68.0 °F - 68.0 °F 100% 30.00 in 7.0 mi Calm Calm - N/A   Overcast
1:35 AM 68.0 °F - 68.0 °F 100% 30.00 in 7.0 mi West 3.5 mph - N/A   Overcast
1:55 AM 68.0 °F - 68.0 °F 100% 30.00 in 7.0 mi West 3.5 mph - N/A   Overcast
2:15 AM 68.0 °F - 68.0 °F 100% 29.99 in 7.0 mi WSW 3.5 mph - N/A   Overcast
2:35 AM 68.0 °F - 68.0 °F 100% 29.99 in 10.0 mi WSW 3.5 mph - N/A   Overcast
2:55 AM 68.0 °F - 68.0 °F 100% 29.99 in 7.0 mi WSW 3.5 mph - N/A   Mostly Cloudy
3:15 AM 68.0 °F - 68.0 °F 100% 29.98 in 7.0 mi Calm Calm - N/A   Mostly Cloudy
3:35 AM 66.2 °F - 66.2 °F 100% 29.98 in 5.0 mi WSW 3.5 mph - N/A   Mostly Cloudy
3:55 AM 66.2 °F - 66.2 °F 100% 29.97 in 5.0 mi WSW 3.5 mph - N/A   Mostly Cloudy
4:15 AM 66.2 °F - 66.2 °F 100% 29.98 in 4.0 mi WNW 3.5 mph - N/A   Mostly Cloudy
4:35 AM 66.2 °F - 66.2 °F 100% 29.98 in 3.0 mi West 4.6 mph - N/A   Overcast
4:55 AM 68.0 °F - 68.0 °F 100% 29.98 in 3.0 mi West 3.5 mph - N/A   Overcast
5:15 AM 68.0 °F - 68.0 °F 100% 29.98 in 4.0 mi WSW 4.6 mph - N/A   Overcast
5:35 AM 68.0 °F - 68.0 °F 100% 29.99 in 4.0 mi West 3.5 mph - N/A   Overcast
5:55 AM 68.0 °F - 68.0 °F 100% 29.99 in 5.0 mi WSW 3.5 mph - N/A   Overcast
6:15 AM 68.0 °F - 68.0 °F 100% 30.00 in 5.0 mi West 3.5 mph - N/A   Overcast
6:35 AM 68.0 °F - 68.0 °F 100% 30.00 in 4.0 mi WNW 5.8 mph - N/A   Overcast
6:55 AM 68.0 °F - 68.0 °F 100% 30.00 in 2.5 mi WNW 5.8 mph - N/A   Overcast
7:15 AM 68.0 °F - 68.0 °F 100% 30.01 in 1.2 mi WNW 4.6 mph - N/A   Overcast
7:35 AM 68.0 °F - 68.0 °F 100% 30.01 in 1.8 mi West 3.5 mph - N/A   Overcast
7:55 AM 68.0 °F - 68.0 °F 100% 30.01 in 2.0 mi West 3.5 mph - N/A   Overcast
8:15 AM 68.0 °F - 68.0 °F 100% 30.02 in 2.0 mi West 3.5 mph - N/A   Overcast
8:35 AM 69.8 °F - 68.0 °F 94% 30.02 in 3.0 mi West 3.5 mph - N/A   Overcast
8:55 AM 69.8 °F - 68.0 °F 94% 30.02 in 3.0 mi Calm Calm - N/A   Heavy Drizzle
9:15 AM 69.8 °F - 68.0 °F 94% 30.02 in 4.0 mi Calm Calm - N/A   Overcast
9:35 AM 69.8 °F - 68.0 °F 94% 30.02 in 5.0 mi NW 3.5 mph - N/A   Overcast
9:55 AM 69.8 °F - 68.0 °F 94% 30.02 in 5.0 mi NW 4.6 mph - N/A   Overcast
10:15 AM 69.8 °F - 68.0 °F 94% 30.02 in 7.0 mi NW 4.6 mph - N/A   Overcast
10:35 AM 69.8 °F - 68.0 °F 94% 30.02 in 7.0 mi NW 3.5 mph - N/A   Overcast
10:55 AM 71.6 °F - 68.0 °F 88% 30.03 in 7.0 mi NNW 4.6 mph - N/A   Overcast
11:15 AM 71.6 °F - 68.0 °F 88% 30.03 in 10.0 mi NNW 3.5 mph - N/A   Overcast
11:35 AM 73.4 °F - 68.0 °F 83% 30.03 in 10.0 mi NNW 6.9 mph - N/A   Overcast
11:55 AM 73.4 °F - 68.0 °F 83% 30.03 in 10.0 mi NW 4.6 mph - N/A   Overcast
12:15 PM 75.2 °F - 68.0 °F 78% 30.03 in 10.0 mi NNW 3.5 mph - N/A   Mostly Cloudy
12:35 PM 77.0 °F - 68.0 °F 74% 30.03 in 10.0 mi NW 6.9 mph - N/A   Mostly Cloudy
12:55 PM 77.0 °F - 68.0 °F 74% 30.03 in 10.0 mi North 4.6 mph - N/A   Mostly Cloudy
1:15 PM 78.8 °F - 68.0 °F 69% 30.03 in 10.0 mi WNW 9.2 mph - N/A   Scattered Clouds
1:35 PM 78.8 °F - 66.2 °F 65% 30.02 in 10.0 mi NNW 6.9 mph 16.1 mph N/A   Scattered Clouds
1:55 PM 78.8 °F - 68.0 °F 69% 30.02 in 10.0 mi North 5.8 mph - N/A   Mostly Cloudy
2:15 PM 78.8 °F - 66.2 °F 65% 30.02 in 10.0 mi North 6.9 mph - N/A   Mostly Cloudy
2:35 PM 78.8 °F - 64.4 °F 61% 30.01 in 10.0 mi NW 4.6 mph - N/A   Scattered Clouds
2:55 PM 78.8 °F - 64.4 °F 61% 30.01 in 10.0 mi North 6.9 mph - N/A   Scattered Clouds
3:15 PM 80.6 °F 82.3 °F 64.4 °F 58% 30.00 in 10.0 mi North 4.6 mph - N/A   Scattered Clouds
3:35 PM 80.6 °F 82.3 °F 64.4 °F 58% 30.00 in 10.0 mi North 8.1 mph - N/A   Scattered Clouds
3:55 PM 80.6 °F 82.3 °F 64.4 °F 58% 30.00 in 10.0 mi North 8.1 mph - N/A   Scattered Clouds
4:15 PM 80.6 °F 82.3 °F 64.4 °F 58% 30.00 in 10.0 mi North 5.8 mph - N/A   Scattered Clouds
4:35 PM 78.8 °F - 64.4 °F 61% 30.00 in 10.0 mi NNW 5.8 mph - N/A   Scattered Clouds
4:55 PM 80.6 °F 82.3 °F 64.4 °F 58% 30.00 in 10.0 mi NNW 6.9 mph - N/A   Scattered Clouds
5:15 PM 78.8 °F - 64.4 °F 61% 30.00 in 10.0 mi North 6.9 mph - N/A   Scattered Clouds
5:35 PM 78.8 °F - 64.4 °F 61% 30.00 in 10.0 mi North 6.9 mph - N/A   Mostly Cloudy
5:55 PM 80.6 °F 82.3 °F 64.4 °F 58% 30.00 in 10.0 mi NNW 4.6 mph - N/A   Scattered Clouds
6:15 PM 78.8 °F - 62.6 °F 57% 29.99 in 10.0 mi NNW 4.6 mph - N/A   Clear
6:35 PM 78.8 °F - 62.6 °F 57% 30.00 in 10.0 mi NW 6.9 mph - N/A   Clear
6:55 PM 78.8 °F - 62.6 °F 57% 30.00 in 10.0 mi NNW 5.8 mph - N/A   Clear
7:15 PM 78.8 °F - 62.6 °F 57% 30.00 in 10.0 mi NNW 5.8 mph - N/A   Scattered Clouds
7:35 PM 77.0 °F - 62.6 °F 61% 30.00 in 10.0 mi Calm Calm - N/A   Scattered Clouds
7:55 PM 77.0 °F - 62.6 °F 61% 30.00 in 10.0 mi NNW 4.6 mph - N/A   Clear
8:15 PM 73.4 °F - 62.6 °F 69% 30.00 in 10.0 mi Calm Calm - N/A   Clear
8:35 PM 71.6 °F - 62.6 °F 73% 30.01 in 10.0 mi Calm Calm - N/A   Clear
8:55 PM 71.6 °F - 62.6 °F 73% 30.00 in 10.0 mi Calm Calm - N/A   Clear
9:15 PM 68.0 °F - 62.6 °F 83% 30.00 in 10.0 mi Calm Calm - N/A   Clear
9:35 PM 66.2 °F - 64.4 °F 94% 30.01 in 10.0 mi Calm Calm - N/A   Clear
9:55 PM 64.4 °F - 62.6 °F 94% 30.02 in 7.0 mi Calm Calm - N/A   Clear
10:15 PM 64.4 °F - 62.6 °F 94% 30.02 in 7.0 mi Calm Calm - N/A   Clear
10:35 PM 64.4 °F - 62.6 °F 94% 30.02 in 7.0 mi Calm Calm - N/A   Clear
10:55 PM 62.6 °F - 62.6 °F 100% 30.03 in 7.0 mi WNW 4.6 mph - N/A   Clear
11:15 PM 62.6 °F - 62.6 °F 100% 30.03 in 7.0 mi NW 4.6 mph - N/A   Clear
11:35 PM 62.6 °F - 60.8 °F 94% 30.03 in 7.0 mi WNW 4.6 mph - N/A   Clear
11:55 PM 62.6 °F - 60.8 °F 94% 30.03 in 7.0 mi NW 3.5 mph - N/A   Clear